Location: Appletree Creek
(38.7363°N, 122.6833°W)
Time: 17:16:12
(UTC+00:00)

ALOS - Pass Details

Date: 18 September 2020
Orbit: 683 x 686 km, 97.9° (Epoch: 20 October)

Event Time Altitude Azimuth Distance (km) Brightness Sun altitude
Rises 12:55:58 0° 11° (N) 3,054 5.9 -12.3°
Reaches altitude 10° 12:58:12 10° 11° (N) 2,134 5.1 -11.9°
Maximum altitude 13:02:53 83° 284° (WNW) 693 2.2 -11.0°
Drops below altitude 10° 13:07:31 10° 196° (SSW) 2,118 4.5 -10.1°
Sets 13:09:45 0° 196° (SSW) 3,029 5.3 -9.7°
